KC3FDL Weather Reports


Display with metric or nautical units.
time (UTC)temp
F
wind
direction
speed
MPH
gust
MPH
rain 1hr
in
rain 24hr
in
rain mn
in
humidity
%
barometer
mb
20260505102037 58 256 1.0 4.0 0.00 0.00 0.00 69 1010.9
20260505101057 58 279 2.0 7.0 0.00 0.00 0.00 69 1010.9
20260505100137 58 267 1.0 7.0 0.00 0.00 0.00 68 1010.9
20260505095017 58 295 2.0 7.0 0.00 0.00 0.00 68 1010.8
20260505094057 58 293 2.0 8.0 0.00 0.00 0.00 68 1010.8
20260505093037 58 299 3.0 8.0 0.00 0.00 0.00 68 1010.8
20260505092017 58 277 2.0 6.0 0.00 0.00 0.00 68 1010.7
20260505091037 58 281 1.0 6.0 0.00 0.00 0.00 69 1010.6
20260505090057 58 270 2.0 7.0 0.00 0.00 0.00 69 1010.7
20260505085037 58 271 2.0 7.0 0.00 0.00 0.00 70 1010.7
20260505084017 58 257 1.0 4.0 0.00 0.00 0.00 69 1010.7
20260505083017 58 271 1.0 3.0 0.00 0.00 0.00 69 1010.6
20260505082037 59 275 1.0 3.0 0.00 0.00 0.00 68 1010.7
20260505081137 59 269 0.0 2.0 0.00 0.00 0.00 68 1010.6
20260505080117 59 275 0.0 3.0 0.00 0.00 0.00 67 1010.6
20260505075117 59 276 1.0 3.0 0.00 0.00 0.00 67 1010.5
20260505074137 59 305 1.0 3.0 0.00 0.00 0.00 67 1010.5
20260505073057 59 305 1.0 3.0 0.00 0.00 0.00 66 1010.4
20260505072057 60 300 1.0 4.0 0.00 0.00 0.00 66 1010.5
20260505071117 60 297 1.0 4.0 0.00 0.00 0.00 65 1010.5
20260505070017 60 290 1.0 3.0 0.00 0.00 0.00 65 1010.5
20260505065037 61 270 1.0 4.0 0.00 0.00 0.00 64 1010.5
20260505064036 61 295 1.0 4.0 0.00 0.00 0.00 64 1010.6
20260505063016 61 300 2.0 7.0 0.00 0.00 0.00 63 1010.6
20260505062036 62 298 2.0 7.0 0.00 0.00 0.00 62 1010.7
20260505061036 62 301 2.0 6.0 0.00 0.00 0.00 62 1010.6
20260505060137 62 301 2.0 7.0 0.00 0.00 0.00 61 1010.7
20260505055016 63 295 3.0 7.0 0.00 0.00 0.00 61 1010.7
20260505054036 63 298 2.0 6.0 0.00 0.00 0.00 60 1010.8
20260505053036 63 307 2.0 6.0 0.00 0.00 0.00 60 1010.8
20260505052016 63 300 2.0 6.0 0.00 0.00 0.00 59 1010.8
20260505051016 63 297 2.0 8.0 0.00 0.00 0.00 59 1010.7
20260505041036 62 298 2.0 8.0 0.00 0.00 0.00 59 1010.4
20260505040016 61 303 2.0 8.0 0.00 0.00 0.00 59 1010.4
20260505035116 61 302 2.0 4.0 0.00 0.00 0.00 59 1010.3
20260505034016 61 290 1.0 4.0 0.00 0.00 0.00 59 1010.3
20260505033037 61 290 1.0 3.0 0.00 0.00 0.00 58 1010.3
20260505032016 61 290 0.0 2.0 0.00 0.00 0.00 56 1010.4
20260505031016 62 0.0 0.0 0.00 0.00 0.00 54 1010.4
20260505030016 62 0.0 1.0 0.00 0.00 0.00 53 1010.4
20260505025016 63 283 0.0 1.0 0.00 0.00 0.00 53 1010.5
20260505024016 63 0.0 0.0 0.00 0.00 0.00 51 1010.5
20260505023016 64 0.0 0.0 0.00 0.00 0.00 50 1010.5
20260505022036 64 0.0 0.0 0.00 0.00 0.00 50 1010.4
20260505021116 65 0.0 0.0 0.00 0.00 0.00 49 1010.4
20260505020056 65 283 0.0 2.0 0.00 0.00 0.00 49 1010.4
20260505015036 65 288 0.0 3.0 0.00 0.00 0.00 49 1010.4
20260505014016 66 294 1.0 3.0 0.00 0.00 0.00 48 1010.3
20260505013016 66 250 0.0 2.0 0.00 0.00 0.00 47 1010.1
20260505012137 66 263 0.0 2.0 0.00 0.00 0.00 47 1010.0
20260505011036 66 284 0.0 3.0 0.00 0.00 0.00 46 1009.9
20260505010116 67 214 0.0 3.0 0.00 0.00 0.00 46 1009.8
20260505005016 67 259 0.0 3.0 0.00 0.00 0.00 45 1009.8
20260505004036 68 241 1.0 4.0 0.00 0.00 0.00 44 1009.7
20260505003016 68 248 1.0 4.0 0.00 0.00 0.00 43 1009.7
20260505002016 69 246 1.0 4.0 0.00 0.00 0.00 43 1009.6
20260505001016 69 251 1.0 8.0 0.00 0.00 0.00 42 1009.6
20260505000016 70 253 1.0 8.0 0.00 0.00 0.00 41 1009.5
20260504235016 71 228 1.0 7.0 0.00 0.00 0.00 40 1009.4
20260504234016 71 247 1.0 9.0 0.00 0.00 0.00 39 1009.4
20260504233016 72 231 2.0 9.0 0.00 0.00 0.00 38 1009.3
20260504232036 73 226 2.0 6.0 0.00 0.00 0.00 37 1009.3
20260504231016 73 222 2.0 10.0 0.00 0.00 0.00 37 1009.3
20260504225056 73 244 2.0 12.0 0.00 0.00 0.00 36 1009.3
20260504224136 74 241 3.0 12.0 0.00 0.00 0.00 35 1009.3
20260504223056 74 255 4.0 11.0 0.00 0.00 0.00 35 1009.3
20260504222016 74 249 3.0 10.0 0.00 0.00 0.00 35 1009.3
20260504221017 74 248 2.0 9.0 0.00 0.00 0.00 35 1009.3
20260504220016 74 241 2.0 11.0 0.00 0.00 0.00 35 1009.3
20260504215016 75 264 4.0 12.0 0.00 0.00 0.00 34 1009.4
20260504214056 75 256 4.0 12.0 0.00 0.00 0.00 34 1009.4
20260504213016 76 252 3.0 10.0 0.00 0.00 0.00 34 1009.4
20260504212016 76 279 4.0 10.0 0.00 0.00 0.00 34 1009.4
20260504211056 76 274 3.0 11.0 0.00 0.00 0.00 34 1009.5
20260504210016 76 273 4.0 13.0 0.00 0.00 0.00 34 1009.5
20260504205016 76 283 4.0 13.0 0.00 0.00 0.00 34 1009.5
20260504204116 76 272 3.0 11.0 0.00 0.00 0.00 35 1009.5
20260504203016 74 283 3.0 18.0 0.00 0.00 0.00 35 1009.6
20260504202038 74 279 5.0 18.0 0.00 0.00 0.00 35 1009.8
20260504201037 74 281 5.0 13.0 0.00 0.00 0.00 34 1009.8
20260504200036 75 289 5.0 12.0 0.00 0.00 0.00 34 1010.0
20260504195157 75 281 4.0 11.0 0.00 0.00 0.00 35 1010.2
20260504194036 75 278 4.0 12.0 0.00 0.00 0.00 35 1010.5
20260504193056 75 246 3.0 12.0 0.00 0.00 0.00 35 1010.7
20260504192016 74 282 4.0 12.0 0.00 0.00 0.00 35 1010.8
20260504191056 74 275 4.0 10.0 0.00 0.00 0.00 35 1011.0
20260504185036 73 276 4.0 15.0 0.00 0.00 0.00 36 1011.3
20260504184015 72 271 5.0 15.0 0.00 0.00 0.00 36 1011.3
20260504183036 72 271 5.0 14.0 0.00 0.00 0.00 36 1011.5
20260504182056 72 265 4.0 13.0 0.00 0.00 0.00 36 1011.6
20260504181015 72 270 4.0 13.0 0.00 0.00 0.00 36 1011.7
20260504180056 71 254 3.0 13.0 0.00 0.00 0.00 36 1011.7
20260504175016 71 293 5.0 14.0 0.00 0.00 0.00 36 1011.8
20260504174035 71 266 5.0 14.0 0.00 0.00 0.00 36 1011.9
20260504173115 70 244 2.0 11.0 0.00 0.00 0.00 36 1011.9
20260504172055 71 242 3.0 11.0 0.00 0.00 0.00 36 1012.2
20260504171015 70 301 2.0 12.0 0.00 0.00 0.00 38 1012.3
20260504151037 65 297 5.0 12.0 0.00 0.00 0.00 40 1013.8
20260504141018 61 239 3.0 10.0 0.00 0.00 0.00 45 1014.0